Time,TemperatureF,DewpointF,PressureIn,WindDirection,WindDirectionDegrees,WindSpeedMPH,WindSpeedGustMPH,Humidity,HourlyPrecipIn,Conditions,Clouds,dailyrainin,SoftwareType,DateUTC
2013-10-18 00:01:00,39.9,38.8,29.82,West,270,15.0,17.0,96,0.00,,,0.00,meteohub,2013-10-18 05:01:00,
2013-10-18 00:06:00,39.7,38.7,29.83,NW,315,13.0,17.0,96,0.00,,,0.00,meteohub,2013-10-18 05:06:00,
2013-10-18 00:11:00,39.7,38.5,29.82,West,270,12.0,17.0,95,0.00,,,0.00,meteohub,2013-10-18 05:11:00,
2013-10-18 00:16:00,39.7,38.5,29.83,NW,315,14.0,17.0,95,0.00,,,0.00,meteohub,2013-10-18 05:16:00,
2013-10-18 00:22:00,39.7,38.1,29.82,NW,315,13.0,17.0,94,0.00,,,0.00,meteohub,2013-10-18 05:22:00,
2013-10-18 00:27:00,39.7,38.1,29.82,NW,315,11.0,17.0,94,0.00,,,0.00,meteohub,2013-10-18 05:27:00,
2013-10-18 00:32:00,39.7,38.1,29.82,West,270,16.0,17.0,94,0.00,,,0.00,meteohub,2013-10-18 05:32:00,
2013-10-18 00:37:00,39.7,38.1,29.82,West,270,11.0,17.0,94,0.00,,,0.00,meteohub,2013-10-18 05:37:00,
2013-10-18 00:42:00,39.7,38.1,29.82,NW,315,15.0,17.0,94,0.00,,,0.00,meteohub,2013-10-18 05:42:00,
2013-10-18 00:47:00,39.7,38.1,29.82,NW,315,15.0,17.0,94,0.00,,,0.00,meteohub,2013-10-18 05:47:00,
2013-10-18 00:52:00,39.6,37.8,29.82,NW,315,15.0,17.0,93,0.00,,,0.00,meteohub,2013-10-18 05:52:00,
2013-10-18 00:57:00,39.6,37.8,29.83,NW,315,16.0,17.0,93,0.00,,,0.00,meteohub,2013-10-18 05:57:00,
2013-10-18 01:02:00,39.4,37.6,29.83,NW,315,18.0,18.0,93,0.00,,,0.00,meteohub,2013-10-18 06:02:00,
2013-10-18 01:07:00,39.6,37.8,29.83,West,270,14.0,18.0,93,0.00,,,0.00,meteohub,2013-10-18 06:07:00,
2013-10-18 01:12:00,39.7,37.6,29.83,NW,315,16.0,19.0,92,0.00,,,0.00,meteohub,2013-10-18 06:12:00,
2013-10-18 01:17:00,39.6,37.4,29.83,West,270,15.0,21.0,92,0.00,,,0.00,meteohub,2013-10-18 06:17:00,
2013-10-18 01:22:00,39.4,37.2,29.82,NW,315,15.0,21.0,92,0.00,,,0.00,meteohub,2013-10-18 06:22:00,
2013-10-18 01:27:00,39.4,37.2,29.82,NW,315,16.0,18.0,92,0.00,,,0.00,meteohub,2013-10-18 06:27:00,
2013-10-18 01:32:00,39.4,37.2,29.83,NW,315,17.0,18.0,92,0.00,,,0.00,meteohub,2013-10-18 06:32:00,
2013-10-18 01:38:00,39.6,37.4,29.83,NW,315,16.0,17.0,92,0.00,,,0.00,meteohub,2013-10-18 06:38:00,
2013-10-18 01:43:00,39.6,37.4,29.83,NW,315,12.0,17.0,92,0.00,,,0.00,meteohub,2013-10-18 06:43:00,
2013-10-18 01:48:00,39.6,37.2,29.83,NW,315,17.0,17.0,91,0.00,,,0.00,meteohub,2013-10-18 06:48:00,
2013-10-18 01:53:00,39.6,37.2,29.83,NW,315,15.0,17.0,91,0.00,,,0.00,meteohub,2013-10-18 06:53:00,
2013-10-18 01:58:00,39.6,37.2,29.83,NW,315,17.0,17.0,91,0.00,,,0.00,meteohub,2013-10-18 06:58:00,
2013-10-18 02:03:00,39.4,37.0,29.83,West,270,15.0,17.0,91,0.00,,,0.00,meteohub,2013-10-18 07:03:00,
2013-10-18 02:08:00,39.4,37.0,29.83,NW,315,15.0,18.0,91,0.00,,,0.00,meteohub,2013-10-18 07:08:00,
2013-10-18 02:13:00,39.4,37.0,29.83,West,270,14.0,18.0,91,0.00,,,0.00,meteohub,2013-10-18 07:13:00,
2013-10-18 02:18:00,39.4,37.0,29.83,NW,315,17.0,18.0,91,0.00,,,0.00,meteohub,2013-10-18 07:18:00,
2013-10-18 02:23:00,39.4,37.0,29.84,NW,315,17.0,18.0,91,0.00,,,0.00,meteohub,2013-10-18 07:23:00,
2013-10-18 02:28:00,39.2,36.9,29.83,NW,315,14.0,17.0,91,0.00,,,0.00,meteohub,2013-10-18 07:28:00,
2013-10-18 02:33:00,39.2,36.9,29.83,NW,315,20.0,20.0,91,0.00,,,0.00,meteohub,2013-10-18 07:33:00,
2013-10-18 02:38:00,39.2,36.5,29.83,West,270,11.0,20.0,90,0.00,,,0.00,meteohub,2013-10-18 07:38:00,
2013-10-18 02:43:00,39.2,36.5,29.84,NW,315,15.0,20.0,90,0.00,,,0.00,meteohub,2013-10-18 07:43:00,
2013-10-18 02:48:00,39.0,36.7,29.84,NW,315,13.0,20.0,91,0.00,,,0.00,meteohub,2013-10-18 07:48:00,
2013-10-18 02:54:00,39.0,36.9,29.84,NW,315,15.0,17.0,92,0.00,,,0.00,meteohub,2013-10-18 07:54:00,
2013-10-18 02:59:00,38.7,36.3,29.83,West,270,11.0,15.0,91,0.00,,,0.00,meteohub,2013-10-18 07:59:00,
2013-10-18 03:04:00,38.5,36.1,29.83,West,270,15.0,15.0,91,0.00,,,0.00,meteohub,2013-10-18 08:04:00,
2013-10-18 03:09:00,38.5,36.1,29.84,NW,315,14.0,15.0,91,0.00,,,0.00,meteohub,2013-10-18 08:09:00,
2013-10-18 03:14:00,38.5,36.1,29.83,NW,315,13.0,17.0,91,0.00,,,0.00,meteohub,2013-10-18 08:14:00,
2013-10-18 03:19:00,38.5,36.1,29.83,NW,315,14.0,17.0,91,0.00,,,0.00,meteohub,2013-10-18 08:19:00,
2013-10-18 03:24:00,38.3,36.0,29.83,NW,315,11.0,17.0,91,0.00,,,0.00,meteohub,2013-10-18 08:24:00,
2013-10-18 03:29:00,38.1,35.8,29.83,West,270,13.0,17.0,91,0.00,,,0.00,meteohub,2013-10-18 08:29:00,
2013-10-18 03:34:00,37.9,35.6,29.83,NW,315,15.0,17.0,91,0.00,,,0.00,meteohub,2013-10-18 08:34:00,
2013-10-18 03:39:00,37.8,35.4,29.84,NW,315,16.0,16.0,91,0.00,,,0.00,meteohub,2013-10-18 08:39:00,
2013-10-18 03:44:00,37.6,35.2,29.84,West,270,15.0,15.0,91,0.00,,,0.00,meteohub,2013-10-18 08:44:00,
2013-10-18 03:49:00,37.2,33.8,29.84,West,270,15.0,16.0,87,0.00,,,0.00,meteohub,2013-10-18 08:49:00,
2013-10-18 03:54:00,37.0,33.3,29.84,NW,315,11.0,16.0,86,0.00,,,0.00,meteohub,2013-10-18 08:54:00,
2013-10-18 03:59:00,36.7,32.9,29.84,West,270,13.0,15.0,86,0.00,,,0.00,meteohub,2013-10-18 08:59:00,
2013-10-18 04:04:00,36.5,32.7,29.84,West,270,11.0,15.0,86,0.00,,,0.00,meteohub,2013-10-18 09:04:00,
2013-10-18 04:09:00,36.3,32.5,29.84,NW,315,11.0,15.0,86,0.00,,,0.00,meteohub,2013-10-18 09:09:00,
2013-10-18 04:14:00,36.1,32.4,29.84,NW,315,13.0,15.0,86,0.00,,,0.00,meteohub,2013-10-18 09:14:00,
2013-10-18 04:20:00,36.1,32.4,29.85,NW,315,15.0,15.0,86,0.00,,,0.00,meteohub,2013-10-18 09:20:00,
2013-10-18 04:25:00,36.0,32.2,29.84,West,270,14.0,17.0,86,0.00,,,0.00,meteohub,2013-10-18 09:25:00,
2013-10-18 04:30:00,35.8,32.0,29.84,NW,315,14.0,17.0,86,0.00,,,0.00,meteohub,2013-10-18 09:30:00,
2013-10-18 04:35:00,35.6,31.8,29.85,NW,315,13.0,17.0,86,0.00,,,0.00,meteohub,2013-10-18 09:35:00,
2013-10-18 04:40:00,35.2,31.8,29.85,NW,315,16.0,16.0,87,0.00,,,0.00,meteohub,2013-10-18 09:40:00,
2013-10-18 04:45:00,34.9,31.5,29.85,West,270,11.0,15.0,87,0.00,,,0.00,meteohub,2013-10-18 09:45:00,
2013-10-18 04:50:00,34.7,31.3,29.85,NW,315,12.0,16.0,87,0.00,,,0.00,meteohub,2013-10-18 09:50:00,
2013-10-18 04:55:00,34.3,31.1,29.85,West,270,11.0,16.0,88,0.00,,,0.00,meteohub,2013-10-18 09:55:00,
2013-10-18 05:00:00,34.2,30.9,29.85,West,270,12.0,14.0,88,0.00,,,0.00,meteohub,2013-10-18 10:00:00,
2013-10-18 05:05:00,34.0,30.7,29.85,NW,315,12.0,14.0,88,0.00,,,0.00,meteohub,2013-10-18 10:05:00,
2013-10-18 05:10:00,33.8,30.6,29.85,NW,315,12.0,14.0,88,0.00,,,0.00,meteohub,2013-10-18 10:10:00,
2013-10-18 05:15:00,33.6,30.7,29.85,West,270,13.0,14.0,89,0.00,,,0.00,meteohub,2013-10-18 10:15:00,
2013-10-18 05:20:00,33.6,30.9,29.85,WNW,293,16.0,16.0,90,0.00,,,0.00,meteohub,2013-10-18 10:20:00,
2013-10-18 05:25:00,33.6,30.9,29.86,NW,315,13.0,17.0,90,0.00,,,0.00,meteohub,2013-10-18 10:25:00,
2013-10-18 05:30:00,33.6,30.7,29.86,NW,315,14.0,17.0,89,0.00,,,0.00,meteohub,2013-10-18 10:30:00,
2013-10-18 05:35:00,33.6,30.7,29.86,NW,315,11.0,17.0,89,0.00,,,0.00,meteohub,2013-10-18 10:35:00,
2013-10-18 05:41:00,33.6,30.9,29.86,West,270,11.0,14.0,90,0.00,,,0.00,meteohub,2013-10-18 10:41:00,
2013-10-18 05:46:00,33.6,30.9,29.86,West,270,13.0,15.0,90,0.00,,,0.00,meteohub,2013-10-18 10:46:00,
2013-10-18 05:51:00,33.4,30.7,29.87,West,270,11.0,15.0,90,0.00,,,0.00,meteohub,2013-10-18 10:51:00,
2013-10-18 05:56:00,33.3,30.6,29.86,West,270,12.0,15.0,90,0.00,,,0.00,meteohub,2013-10-18 10:56:00,
2013-10-18 06:01:00,33.3,30.6,29.87,NW,315,10.0,15.0,90,0.00,,,0.00,meteohub,2013-10-18 11:01:00,
2013-10-18 06:06:00,33.1,30.4,29.87,West,270,11.0,15.0,90,0.00,,,0.00,meteohub,2013-10-18 11:06:00,
2013-10-18 06:11:00,32.9,30.4,29.87,NW,315,11.0,14.0,90,0.00,,,0.00,meteohub,2013-10-18 11:11:00,
2013-10-18 06:16:00,33.1,30.4,29.87,NW,315,11.0,15.0,90,0.00,,,0.00,meteohub,2013-10-18 11:16:00,
2013-10-18 06:21:00,33.3,30.6,29.87,NW,315,11.0,15.0,90,0.00,,,0.00,meteohub,2013-10-18 11:21:00,
2013-10-18 06:26:00,33.1,30.4,29.87,West,270,11.0,15.0,90,0.00,,,0.00,meteohub,2013-10-18 11:26:00,
2013-10-18 06:31:00,32.7,30.2,29.87,NW,315,11.0,14.0,90,0.00,,,0.00,meteohub,2013-10-18 11:31:00,
2013-10-18 06:36:00,32.7,30.2,29.87,West,270,11.0,12.0,90,0.00,,,0.00,meteohub,2013-10-18 11:36:00,
2013-10-18 06:41:00,32.5,30.0,29.87,West,270,9.0,14.0,90,0.00,,,0.00,meteohub,2013-10-18 11:41:00,
2013-10-18 06:46:00,32.4,29.8,29.87,West,270,11.0,14.0,90,0.00,,,0.00,meteohub,2013-10-18 11:46:00,
2013-10-18 06:51:00,32.5,30.0,29.87,West,270,13.0,13.0,90,0.00,,,0.00,meteohub,2013-10-18 11:51:00,
2013-10-18 06:57:00,32.5,30.0,29.87,NW,315,9.0,13.0,90,0.00,,,0.00,meteohub,2013-10-18 11:57:00,
2013-10-18 07:02:00,32.2,29.7,29.87,West,270,8.0,13.0,90,0.00,,,0.00,meteohub,2013-10-18 12:02:00,
2013-10-18 07:07:00,32.0,29.5,29.87,NW,315,8.0,13.0,90,0.00,,,0.00,meteohub,2013-10-18 12:07:00,
2013-10-18 07:12:00,32.0,29.5,29.88,West,270,9.0,10.0,90,0.00,,,0.00,meteohub,2013-10-18 12:12:00,
2013-10-18 07:17:00,31.8,29.5,29.88,West,270,9.0,10.0,91,0.00,,,0.00,meteohub,2013-10-18 12:17:00,
2013-10-18 07:22:00,31.5,29.1,29.88,West,270,11.0,11.0,91,0.00,,,0.00,meteohub,2013-10-18 12:22:00,
2013-10-18 07:27:00,31.5,29.1,29.88,West,270,9.0,11.0,91,0.00,,,0.00,meteohub,2013-10-18 12:27:00,
2013-10-18 07:32:00,31.3,29.3,29.88,West,270,8.0,11.0,92,0.00,,,0.00,meteohub,2013-10-18 12:32:00,
2013-10-18 07:37:00,31.5,29.5,29.88,West,270,9.0,11.0,92,0.00,,,0.00,meteohub,2013-10-18 12:37:00,
2013-10-18 07:42:00,31.5,29.5,29.88,SW,225,10.0,11.0,92,0.00,,,0.00,meteohub,2013-10-18 12:42:00,
2013-10-18 07:47:00,31.5,29.5,29.88,West,270,8.0,11.0,92,0.00,,,0.00,meteohub,2013-10-18 12:47:00,
2013-10-18 07:53:00,31.6,29.7,29.88,West,270,11.0,11.0,92,0.00,,,0.00,meteohub,2013-10-18 12:53:00,
2013-10-18 07:58:00,31.6,29.7,29.89,West,270,8.0,11.0,92,0.00,,,0.00,meteohub,2013-10-18 12:58:00,
2013-10-18 08:03:00,31.6,29.7,29.89,NW,315,10.0,17.0,92,0.00,,,0.00,meteohub,2013-10-18 13:03:00,
2013-10-18 08:08:00,31.8,29.8,29.89,West,270,9.0,17.0,92,0.00,,,0.00,meteohub,2013-10-18 13:08:00,
2013-10-18 08:13:00,32.0,30.0,29.89,NW,315,12.0,17.0,92,0.00,,,0.00,meteohub,2013-10-18 13:13:00,
2013-10-18 08:18:00,32.4,30.4,29.89,West,270,9.0,11.0,92,0.00,,,0.00,meteohub,2013-10-18 13:18:00,
2013-10-18 08:23:00,32.5,30.6,29.89,West,270,9.0,12.0,92,0.00,,,0.00,meteohub,2013-10-18 13:23:00,
2013-10-18 08:28:00,32.7,30.4,29.89,West,270,7.0,12.0,91,0.00,,,0.00,meteohub,2013-10-18 13:28:00,
2013-10-18 08:33:00,33.1,30.7,29.89,NW,315,12.0,12.0,91,0.00,,,0.00,meteohub,2013-10-18 13:33:00,
2013-10-18 08:38:00,33.4,31.1,29.89,NW,315,10.0,14.0,91,0.00,,,0.00,meteohub,2013-10-18 13:38:00,
2013-10-18 08:44:00,33.8,30.9,29.89,West,270,12.0,14.0,89,0.00,,,0.00,meteohub,2013-10-18 13:44:00,
2013-10-18 08:49:00,33.6,30.7,29.89,NW,315,10.0,14.0,89,0.00,,,0.00,meteohub,2013-10-18 13:49:00,
2013-10-18 08:54:00,33.8,30.6,29.89,NW,315,11.0,14.0,88,0.00,,,0.00,meteohub,2013-10-18 13:54:00,
2013-10-18 08:59:00,34.0,30.6,29.90,West,270,9.0,12.0,87,0.00,,,0.00,meteohub,2013-10-18 13:59:00,
2013-10-18 09:04:00,34.3,30.9,29.90,NW,315,9.0,13.0,87,0.00,,,0.00,meteohub,2013-10-18 14:04:00,
2013-10-18 09:09:00,34.7,31.3,29.90,NW,315,9.0,13.0,87,0.00,,,0.00,meteohub,2013-10-18 14:09:00,
2013-10-18 09:14:00,35.1,31.6,29.89,NW,315,10.0,13.0,87,0.00,,,0.00,meteohub,2013-10-18 14:14:00,
2013-10-18 09:19:00,35.2,31.5,29.90,West,270,11.0,14.0,86,0.00,,,0.00,meteohub,2013-10-18 14:19:00,
2013-10-18 09:24:00,35.6,31.5,29.90,West,270,11.0,14.0,85,0.00,,,0.00,meteohub,2013-10-18 14:24:00,
2013-10-18 09:29:00,36.0,31.6,29.90,West,270,12.0,15.0,84,0.00,,,0.00,meteohub,2013-10-18 14:29:00,
2013-10-18 09:34:00,36.3,32.0,29.90,West,270,9.0,15.0,84,0.00,,,0.00,meteohub,2013-10-18 14:34:00,
2013-10-18 09:40:00,36.9,32.2,29.90,West,270,10.0,15.0,83,0.00,,,0.00,meteohub,2013-10-18 14:40:00,
2013-10-18 09:45:00,37.6,34.0,29.90,West,270,7.0,13.0,87,0.00,,,0.00,meteohub,2013-10-18 14:45:00,
2013-10-18 09:50:00,38.3,34.7,29.89,NW,315,8.0,11.0,87,0.00,,,0.00,meteohub,2013-10-18 14:50:00,
2013-10-18 09:55:00,38.7,34.9,29.89,NW,315,11.0,11.0,86,0.00,,,0.00,meteohub,2013-10-18 14:55:00,
2013-10-18 10:00:00,39.0,34.9,29.89,West,270,13.0,13.0,85,0.00,,,0.00,meteohub,2013-10-18 15:00:00,
2013-10-18 10:05:00,39.6,35.1,29.90,North,0,13.0,14.0,84,0.00,,,0.00,meteohub,2013-10-18 15:05:00,
2013-10-18 10:10:00,39.9,35.2,29.90,NW,315,11.0,14.0,83,0.00,,,0.00,meteohub,2013-10-18 15:10:00,
2013-10-18 10:15:00,39.9,34.9,29.90,NW,315,11.0,14.0,82,0.00,,,0.00,meteohub,2013-10-18 15:15:00,
2013-10-18 10:20:00,40.5,35.4,29.89,NW,315,10.0,13.0,82,0.00,,,0.00,meteohub,2013-10-18 15:20:00,
2013-10-18 10:25:00,40.8,35.4,29.90,NW,315,8.0,13.0,81,0.00,,,0.00,meteohub,2013-10-18 15:25:00,
2013-10-18 10:30:00,41.4,35.6,29.90,NW,315,11.0,11.0,80,0.00,,,0.00,meteohub,2013-10-18 15:30:00,
2013-10-18 10:35:00,41.7,36.0,29.89,NW,315,10.0,11.0,80,0.00,,,0.00,meteohub,2013-10-18 15:35:00,
2013-10-18 10:41:00,41.9,35.6,29.90,NW,315,8.0,11.0,78,0.00,,,0.00,meteohub,2013-10-18 15:41:00,
2013-10-18 10:46:00,42.4,36.1,29.89,NW,315,9.0,11.0,78,0.00,,,0.00,meteohub,2013-10-18 15:46:00,
2013-10-18 10:51:00,42.6,36.0,29.89,NW,315,7.0,11.0,77,0.00,,,0.00,meteohub,2013-10-18 15:51:00,
2013-10-18 10:56:00,42.8,35.1,29.90,West,270,11.0,11.0,74,0.00,,,0.00,meteohub,2013-10-18 15:56:00,
2013-10-18 11:01:00,43.5,35.8,29.89,NW,315,9.0,11.0,74,0.00,,,0.00,meteohub,2013-10-18 16:01:00,
2013-10-18 11:06:00,43.9,36.1,29.89,West,270,5.0,11.0,74,0.00,,,0.00,meteohub,2013-10-18 16:06:00,
2013-10-18 11:11:00,44.4,37.0,29.90,West,270,8.0,11.0,75,0.00,,,0.00,meteohub,2013-10-18 16:11:00,
2013-10-18 11:16:00,45.0,36.9,29.90,West,270,10.0,10.0,73,0.00,,,0.00,meteohub,2013-10-18 16:16:00,
2013-10-18 11:21:00,45.1,36.3,29.89,West,270,10.0,11.0,71,0.00,,,0.00,meteohub,2013-10-18 16:21:00,
2013-10-18 11:26:00,45.3,36.1,29.89,West,270,11.0,11.0,70,0.00,,,0.00,meteohub,2013-10-18 16:26:00,
2013-10-18 11:31:00,45.9,37.0,29.89,West,270,8.0,12.0,71,0.00,,,0.00,meteohub,2013-10-18 16:31:00,
2013-10-18 11:36:00,46.2,37.0,29.88,West,270,9.0,12.0,70,0.00,,,0.00,meteohub,2013-10-18 16:36:00,
2013-10-18 11:42:00,46.9,38.3,29.88,West,270,12.0,12.0,72,0.00,,,0.00,meteohub,2013-10-18 16:42:00,
2013-10-18 11:47:00,46.8,36.7,29.88,NW,315,11.0,15.0,68,0.00,,,0.00,meteohub,2013-10-18 16:47:00,
2013-10-18 11:52:00,47.1,37.4,29.88,West,270,14.0,15.0,69,0.00,,,0.00,meteohub,2013-10-18 16:52:00,
2013-10-18 11:57:00,47.3,36.5,29.89,West,270,11.0,15.0,66,0.00,,,0.00,meteohub,2013-10-18 16:57:00,
2013-10-18 12:02:00,47.8,37.8,29.89,NW,315,15.0,15.0,68,0.00,,,0.00,meteohub,2013-10-18 17:02:00,
2013-10-18 12:07:00,47.8,36.3,29.88,NW,315,14.0,15.0,64,0.00,,,0.00,meteohub,2013-10-18 17:07:00,
2013-10-18 12:12:00,48.6,36.5,29.88,West,270,13.0,15.0,63,0.00,,,0.00,meteohub,2013-10-18 17:12:00,
2013-10-18 12:17:00,48.9,36.9,29.89,West,270,15.0,15.0,63,0.00,,,0.00,meteohub,2013-10-18 17:17:00,
2013-10-18 12:22:00,49.3,37.2,29.88,West,270,10.0,15.0,63,0.00,,,0.00,meteohub,2013-10-18 17:22:00,
2013-10-18 12:28:00,50.0,37.6,29.88,West,270,13.0,15.0,62,0.00,,,0.00,meteohub,2013-10-18 17:28:00,
2013-10-18 12:33:00,49.5,35.2,29.87,NW,315,11.0,23.0,58,0.00,,,0.00,meteohub,2013-10-18 17:33:00,
2013-10-18 12:38:00,49.3,33.8,29.88,West,270,11.0,23.0,55,0.00,,,0.00,meteohub,2013-10-18 17:38:00,
2013-10-18 12:39:00,49.5,34.3,29.88,West,270,12.0,23.0,56,0.00,,,0.00,meteohub,2013-10-18 17:39:00,
2013-10-18 12:44:00,49.6,34.2,29.88,NW,315,16.0,23.0,55,0.00,,,0.00,meteohub,2013-10-18 17:44:00,
2013-10-18 12:49:00,50.0,34.5,29.87,West,270,17.0,17.0,55,0.00,,,0.00,meteohub,2013-10-18 17:49:00,
2013-10-18 12:54:00,49.8,34.3,29.87,NW,315,17.0,17.0,55,0.00,,,0.00,meteohub,2013-10-18 17:54:00,
2013-10-18 12:59:00,50.0,33.6,29.86,NW,315,15.0,19.0,53,0.00,,,0.00,meteohub,2013-10-18 17:59:00,
2013-10-18 13:04:00,50.0,33.1,29.86,West,270,16.0,19.0,52,0.00,,,0.00,meteohub,2013-10-18 18:04:00,
2013-10-18 13:09:00,50.5,34.5,29.86,West,270,16.0,19.0,54,0.00,,,0.00,meteohub,2013-10-18 18:09:00,
2013-10-18 13:14:00,50.5,34.0,29.86,NW,315,13.0,19.0,53,0.00,,,0.00,meteohub,2013-10-18 18:14:00,
2013-10-18 13:19:00,50.4,32.9,29.85,NW,315,17.0,21.0,51,0.00,,,0.00,meteohub,2013-10-18 18:19:00,
2013-10-18 13:24:00,50.7,33.8,29.85,West,270,13.0,21.0,52,0.00,,,0.00,meteohub,2013-10-18 18:24:00,
2013-10-18 13:30:00,51.1,34.5,29.85,West,270,18.0,21.0,53,0.00,,,0.00,meteohub,2013-10-18 18:30:00,
2013-10-18 13:35:00,51.1,33.6,29.85,West,270,16.0,18.0,51,0.00,,,0.00,meteohub,2013-10-18 18:35:00,
2013-10-18 13:40:00,51.3,32.7,29.84,NW,315,12.0,18.0,49,0.00,,,0.00,meteohub,2013-10-18 18:40:00,
2013-10-18 13:45:00,51.4,33.4,29.84,West,270,19.0,21.0,50,0.00,,,0.00,meteohub,2013-10-18 18:45:00,
2013-10-18 13:50:00,51.1,32.0,29.84,West,270,19.0,21.0,48,0.00,,,0.00,meteohub,2013-10-18 18:50:00,
2013-10-18 13:55:00,51.4,33.4,29.83,NW,315,15.0,21.0,50,0.00,,,0.00,meteohub,2013-10-18 18:55:00,
2013-10-18 14:00:00,52.0,33.4,29.83,NW,315,12.0,21.0,49,0.00,,,0.00,meteohub,2013-10-18 19:00:00,
2013-10-18 14:05:00,51.8,31.6,29.82,NW,315,16.0,21.0,46,0.00,,,0.00,meteohub,2013-10-18 19:05:00,
2013-10-18 14:10:00,51.4,30.7,29.82,NW,315,16.0,22.0,45,0.00,,,0.00,meteohub,2013-10-18 19:10:00,
2013-10-18 14:15:00,51.4,30.2,29.82,NW,315,18.0,22.0,44,0.00,,,0.00,meteohub,2013-10-18 19:15:00,
2013-10-18 14:21:00,51.6,29.3,29.81,NW,315,20.0,22.0,42,0.00,,,0.00,meteohub,2013-10-18 19:21:00,
2013-10-18 14:26:00,52.2,32.0,29.82,West,270,16.0,20.0,46,0.00,,,0.00,meteohub,2013-10-18 19:26:00,
2013-10-18 14:31:00,51.4,30.2,29.82,NW,315,19.0,24.0,44,0.00,,,0.00,meteohub,2013-10-18 19:31:00,
2013-10-18 14:36:00,50.2,29.7,29.82,NW,315,14.0,24.0,45,0.00,,,0.00,meteohub,2013-10-18 19:36:00,
2013-10-18 14:41:00,50.4,29.3,29.81,NW,315,15.0,21.0,44,0.00,,,0.00,meteohub,2013-10-18 19:41:00,
2013-10-18 14:46:00,50.9,30.4,29.81,NW,315,12.0,21.0,45,0.00,,,0.00,meteohub,2013-10-18 19:46:00,
2013-10-18 14:51:00,50.9,29.1,29.81,West,270,18.0,18.0,43,0.00,,,0.00,meteohub,2013-10-18 19:51:00,
2013-10-18 14:56:00,50.5,30.0,29.81,West,270,15.0,18.0,45,0.00,,,0.00,meteohub,2013-10-18 19:56:00,
2013-10-18 15:01:00,50.5,30.6,29.81,West,270,13.0,18.0,46,0.00,,,0.00,meteohub,2013-10-18 20:01:00,
2013-10-18 15:06:00,50.5,30.0,29.81,West,270,11.0,18.0,45,0.00,,,0.00,meteohub,2013-10-18 20:06:00,
2013-10-18 15:12:00,50.5,31.1,29.82,West,270,11.0,16.0,47,0.00,,,0.00,meteohub,2013-10-18 20:12:00,
2013-10-18 15:17:00,50.9,31.8,29.81,West,270,13.0,15.0,48,0.00,,,0.00,meteohub,2013-10-18 20:17:00,
2013-10-18 15:22:00,52.2,32.5,29.82,West,270,15.0,17.0,47,0.00,,,0.00,meteohub,2013-10-18 20:22:00,
2013-10-18 15:27:00,52.5,32.9,29.81,West,270,14.0,17.0,47,0.00,,,0.00,meteohub,2013-10-18 20:27:00,
2013-10-18 15:32:00,52.2,33.6,29.81,West,270,12.0,18.0,49,0.00,,,0.00,meteohub,2013-10-18 20:32:00,
2013-10-18 15:37:00,52.5,32.9,29.81,West,270,12.0,18.0,47,0.00,,,0.00,meteohub,2013-10-18 20:37:00,
2013-10-18 15:42:00,53.2,32.4,29.81,West,270,16.0,17.0,45,0.00,,,0.00,meteohub,2013-10-18 20:42:00,
2013-10-18 15:47:00,53.1,29.3,29.81,West,270,11.0,18.0,40,0.00,,,0.00,meteohub,2013-10-18 20:47:00,
2013-10-18 15:52:00,53.1,28.8,29.80,NW,315,13.0,18.0,39,0.00,,,0.00,meteohub,2013-10-18 20:52:00,
2013-10-18 15:57:00,53.6,30.4,29.80,West,270,14.0,18.0,41,0.00,,,0.00,meteohub,2013-10-18 20:57:00,
2013-10-18 16:02:00,52.9,30.9,29.80,West,270,16.0,17.0,43,0.00,,,0.00,meteohub,2013-10-18 21:02:00,
2013-10-18 16:07:00,51.8,31.6,29.81,West,270,15.0,17.0,46,0.00,,,0.00,meteohub,2013-10-18 21:07:00,
2013-10-18 16:12:00,51.3,31.6,29.81,NW,315,11.0,17.0,47,0.00,,,0.00,meteohub,2013-10-18 21:12:00,
2013-10-18 16:17:00,51.1,33.1,29.81,West,270,13.0,17.0,50,0.00,,,0.00,meteohub,2013-10-18 21:17:00,
2013-10-18 16:23:00,51.1,33.1,29.81,West,270,12.0,15.0,50,0.00,,,0.00,meteohub,2013-10-18 21:23:00,
2013-10-18 16:28:00,51.1,33.1,29.80,SW,225,16.0,16.0,50,0.00,,,0.00,meteohub,2013-10-18 21:28:00,
2013-10-18 16:33:00,50.9,33.4,29.79,West,270,14.0,16.0,51,0.00,,,0.00,meteohub,2013-10-18 21:33:00,
2013-10-18 16:38:00,50.9,32.9,29.80,West,270,11.0,17.0,50,0.00,,,0.00,meteohub,2013-10-18 21:38:00,
2013-10-18 16:43:00,51.1,33.6,29.79,West,270,9.0,17.0,51,0.00,,,0.00,meteohub,2013-10-18 21:43:00,
2013-10-18 16:48:00,50.9,34.0,29.80,SW,225,8.0,15.0,52,0.00,,,0.00,meteohub,2013-10-18 21:48:00,
2013-10-18 16:53:00,51.1,34.0,29.79,West,270,9.0,12.0,52,0.00,,,0.00,meteohub,2013-10-18 21:53:00,
2013-10-18 16:58:00,50.9,34.0,29.80,West,270,10.0,10.0,52,0.00,,,0.00,meteohub,2013-10-18 21:58:00,
2013-10-18 17:03:00,50.9,34.0,29.79,West,270,10.0,11.0,52,0.00,,,0.00,meteohub,2013-10-18 22:03:00,
2013-10-18 17:08:00,50.7,33.8,29.79,NW,315,8.0,11.0,52,0.00,,,0.00,meteohub,2013-10-18 22:08:00,
2013-10-18 17:13:00,50.5,33.6,29.79,West,270,8.0,11.0,52,0.00,,,0.00,meteohub,2013-10-18 22:13:00,
2013-10-18 17:18:00,50.4,32.9,29.79,West,270,11.0,11.0,51,0.00,,,0.00,meteohub,2013-10-18 22:18:00,
2013-10-18 17:24:00,50.2,32.7,29.79,West,270,10.0,15.0,51,0.00,,,0.00,meteohub,2013-10-18 22:24:00,
2013-10-18 17:29:00,49.5,33.1,29.80,West,270,27.0,27.0,53,0.00,,,0.00,meteohub,2013-10-18 22:29:00,
2013-10-18 17:34:00,48.2,31.8,29.79,West,270,14.0,30.0,53,0.00,,,0.00,meteohub,2013-10-18 22:34:00,
2013-10-18 17:39:00,47.7,33.6,29.79,SW,225,18.0,30.0,58,0.00,,,0.00,meteohub,2013-10-18 22:39:00,
2013-10-18 17:44:00,47.5,34.3,29.79,WSW,248,15.0,30.0,60,0.00,,,0.00,meteohub,2013-10-18 22:44:00,
2013-10-18 17:49:00,47.1,34.7,29.79,West,270,12.0,18.0,62,0.00,,,0.00,meteohub,2013-10-18 22:49:00,
2013-10-18 17:54:00,47.5,35.1,29.78,West,270,16.0,18.0,62,0.00,,,0.00,meteohub,2013-10-18 22:54:00,
2013-10-18 17:59:00,47.7,34.5,29.79,SW,225,14.0,15.0,60,0.00,,,0.00,meteohub,2013-10-18 22:59:00,
2013-10-18 18:04:00,47.8,33.3,29.79,West,270,8.0,16.0,57,0.00,,,0.00,meteohub,2013-10-18 23:04:00,
2013-10-18 18:09:00,47.7,33.6,29.78,WSW,248,16.0,26.0,58,0.00,,,0.00,meteohub,2013-10-18 23:09:00,
2013-10-18 18:14:00,47.5,33.8,29.78,WSW,248,12.0,26.0,59,0.00,,,0.00,meteohub,2013-10-18 23:14:00,
2013-10-18 18:19:00,46.8,33.6,29.78,SW,225,8.0,26.0,60,0.00,,,0.00,meteohub,2013-10-18 23:19:00,
2013-10-18 18:24:00,46.4,33.6,29.78,North,0,10.0,17.0,61,0.00,,,0.00,meteohub,2013-10-18 23:24:00,
2013-10-18 18:30:00,45.9,33.3,29.78,SW,225,9.0,15.0,61,0.00,,,0.00,meteohub,2013-10-18 23:30:00,
2013-10-18 18:35:00,45.5,32.9,29.79,NW,315,9.0,13.0,61,0.00,,,0.00,meteohub,2013-10-18 23:35:00,
2013-10-18 18:40:00,45.0,32.7,29.78,WSW,248,7.0,12.0,62,0.00,,,0.00,meteohub,2013-10-18 23:40:00,
2013-10-18 18:45:00,44.8,32.5,29.78,SW,225,7.0,12.0,62,0.00,,,0.00,meteohub,2013-10-18 23:45:00,
2013-10-18 18:50:00,44.4,33.1,29.78,West,270,4.0,11.0,64,0.00,,,0.00,meteohub,2013-10-18 23:50:00,
2013-10-18 18:55:00,44.1,32.7,29.78,WSW,248,5.0,10.0,64,0.00,,,0.00,meteohub,2013-10-18 23:55:00,
2013-10-18 19:00:00,43.7,32.7,29.79,West,270,11.0,11.0,65,0.00,,,0.00,meteohub,2013-10-19 00:00:00,
2013-10-18 19:05:00,43.9,33.6,29.79,West,270,8.0,12.0,67,0.00,,,0.00,meteohub,2013-10-19 00:05:00,
2013-10-18 19:10:00,44.2,34.0,29.79,West,270,5.0,12.0,67,0.00,,,0.00,meteohub,2013-10-19 00:10:00,
2013-10-18 19:15:00,43.9,33.6,29.78,North,0,4.0,12.0,67,0.00,,,0.00,meteohub,2013-10-19 00:15:00,
2013-10-18 19:20:00,43.7,33.8,29.79,West,270,6.0,8.0,68,0.00,,,0.00,meteohub,2013-10-19 00:20:00,
2013-10-18 19:25:00,43.9,34.0,29.79,West,270,6.0,7.0,68,0.00,,,0.00,meteohub,2013-10-19 00:25:00,
2013-10-18 19:30:00,43.9,34.3,29.79,West,270,4.0,7.0,69,0.00,,,0.00,meteohub,2013-10-19 00:30:00,
2013-10-18 19:35:00,43.7,34.2,29.79,West,270,3.0,6.0,69,0.00,,,0.00,meteohub,2013-10-19 00:35:00,
2013-10-18 19:40:00,43.5,34.0,29.79,West,270,5.0,6.0,69,0.00,,,0.00,meteohub,2013-10-19 00:40:00,
2013-10-18 19:46:00,43.3,34.2,29.79,West,270,6.0,6.0,70,0.00,,,0.00,meteohub,2013-10-19 00:46:00,
2013-10-18 19:51:00,43.5,34.7,29.80,West,270,31.0,31.0,71,0.00,,,0.00,meteohub,2013-10-19 00:51:00,
2013-10-18 19:56:00,42.4,35.4,29.80,NW,315,30.0,37.0,76,0.00,,,0.00,meteohub,2013-10-19 00:56:00,
2013-10-18 20:01:00,41.2,35.8,29.80,West,270,24.0,37.0,81,0.00,,,0.00,meteohub,2013-10-19 01:01:00,
2013-10-18 20:06:00,40.8,36.7,29.81,West,270,20.0,37.0,85,0.00,,,0.00,meteohub,2013-10-19 01:06:00,
2013-10-18 20:11:00,40.5,36.9,29.81,West,270,21.0,30.0,87,0.00,,,0.00,meteohub,2013-10-19 01:11:00,
2013-10-18 20:16:00,40.3,37.2,29.81,West,270,23.0,24.0,89,0.00,,,0.00,meteohub,2013-10-19 01:16:00,
2013-10-18 20:21:00,40.1,37.4,29.80,NW,315,11.0,25.0,90,0.00,,,0.00,meteohub,2013-10-19 01:21:00,
2013-10-18 20:26:00,39.4,37.0,29.80,West,270,9.0,25.0,91,0.00,,,0.00,meteohub,2013-10-19 01:26:00,
2013-10-18 20:32:00,39.4,37.0,29.79,West,270,7.0,25.0,91,0.00,,,0.00,meteohub,2013-10-19 01:32:00,
2013-10-18 20:37:00,39.4,37.0,29.79,West,270,5.0,17.0,91,0.00,,,0.00,meteohub,2013-10-19 01:37:00,
2013-10-18 20:42:00,39.4,37.2,29.79,West,270,4.0,11.0,92,0.00,,,0.00,meteohub,2013-10-19 01:42:00,
2013-10-18 20:47:00,39.4,37.6,29.79,West,270,4.0,8.0,93,0.00,,,0.00,meteohub,2013-10-19 01:47:00,
2013-10-18 20:52:00,39.4,37.6,29.79,SW,225,5.0,5.0,93,0.00,,,0.00,meteohub,2013-10-19 01:52:00,
2013-10-18 20:57:00,39.2,37.4,29.79,WSW,248,5.0,5.0,93,0.00,,,0.00,meteohub,2013-10-19 01:57:00,
2013-10-18 21:02:00,39.2,37.6,29.79,SW,225,5.0,5.0,94,0.00,,,0.00,meteohub,2013-10-19 02:02:00,
2013-10-18 21:07:00,39.2,37.6,29.79,WSW,248,6.0,20.0,94,0.00,,,0.00,meteohub,2013-10-19 02:07:00,
2013-10-18 21:12:00,39.2,37.6,29.79,SSW,203,9.0,20.0,94,0.00,,,0.00,meteohub,2013-10-19 02:12:00,
2013-10-18 21:17:00,39.2,37.9,29.78,SW,225,9.0,20.0,95,0.00,,,0.00,meteohub,2013-10-19 02:17:00,
2013-10-18 21:22:00,39.4,38.1,29.78,SW,225,10.0,10.0,95,0.00,,,0.00,meteohub,2013-10-19 02:22:00,
2013-10-18 21:27:00,39.4,38.1,29.78,WSW,248,8.0,10.0,95,0.00,,,0.00,meteohub,2013-10-19 02:27:00,
2013-10-18 21:32:00,39.6,38.5,29.78,West,270,9.0,10.0,96,0.00,,,0.00,meteohub,2013-10-19 02:32:00,
2013-10-18 21:37:00,39.6,38.5,29.78,NW,315,9.0,10.0,96,0.00,,,0.00,meteohub,2013-10-19 02:37:00,
2013-10-18 21:43:00,39.6,38.5,29.78,WSW,248,9.0,10.0,96,0.00,,,0.00,meteohub,2013-10-19 02:43:00,
2013-10-18 21:48:00,39.6,38.5,29.77,North,0,9.0,11.0,96,0.00,,,0.00,meteohub,2013-10-19 02:48:00,
2013-10-18 21:53:00,39.4,38.7,29.77,WSW,248,8.0,11.0,97,0.00,,,0.00,meteohub,2013-10-19 02:53:00,
2013-10-18 21:58:00,39.2,38.5,29.77,WSW,248,8.0,11.0,97,0.00,,,0.00,meteohub,2013-10-19 02:58:00,
2013-10-18 22:03:00,38.8,38.3,29.77,WSW,248,7.0,11.0,98,0.00,,,0.00,meteohub,2013-10-19 03:03:00,
2013-10-18 22:08:00,38.5,37.9,29.77,West,270,9.0,11.0,98,0.00,,,0.00,meteohub,2013-10-19 03:08:00,
2013-10-18 22:13:00,38.1,37.6,29.76,WNW,293,8.0,10.0,98,0.00,,,0.00,meteohub,2013-10-19 03:13:00,
2013-10-18 22:18:00,37.8,37.0,29.76,West,270,8.0,9.0,97,0.00,,,0.00,meteohub,2013-10-19 03:18:00,
2013-10-18 22:23:00,37.4,36.7,29.76,NW,315,8.0,9.0,97,0.00,,,0.00,meteohub,2013-10-19 03:23:00,
2013-10-18 22:28:00,37.2,35.4,29.76,SW,225,8.0,9.0,93,0.00,,,0.00,meteohub,2013-10-19 03:28:00,
2013-10-18 22:33:00,37.0,35.4,29.76,SW,225,8.0,9.0,94,0.00,,,0.00,meteohub,2013-10-19 03:33:00,
2013-10-18 22:38:00,36.9,35.2,29.76,West,270,6.0,9.0,94,0.00,,,0.00,meteohub,2013-10-19 03:38:00,
2013-10-18 22:43:00,36.7,35.1,29.76,WSW,248,8.0,8.0,94,0.00,,,0.00,meteohub,2013-10-19 03:43:00,
2013-10-18 22:48:00,36.5,34.9,29.76,NW,315,6.0,8.0,94,0.00,,,0.00,meteohub,2013-10-19 03:48:00,
2013-10-18 22:54:00,36.1,34.5,29.76,SW,225,8.0,8.0,94,0.00,,,0.00,meteohub,2013-10-19 03:54:00,
2013-10-18 22:59:00,35.8,34.2,29.75,West,270,8.0,8.0,94,0.00,,,0.00,meteohub,2013-10-19 03:59:00,
2013-10-18 23:01:00,35.8,34.2,29.76,West,270,8.0,8.0,94,0.00,,,0.00,meteohub,2013-10-19 04:01:00,
2013-10-18 23:02:00,35.8,34.2,29.75,NW,315,8.0,8.0,94,0.00,,,0.00,meteohub,2013-10-19 04:02:00,
2013-10-18 23:04:00,35.6,34.0,29.75,WNW,293,9.0,9.0,94,0.00,,,0.00,meteohub,2013-10-19 04:04:00,
2013-10-18 23:05:00,35.6,34.0,29.75,West,270,8.0,9.0,94,0.00,,,0.00,meteohub,2013-10-19 04:05:00,
2013-10-18 23:10:00,35.6,34.0,29.75,West,270,7.0,9.0,94,0.00,,,0.00,meteohub,2013-10-19 04:10:00,
2013-10-18 23:11:00,35.6,34.0,29.75,West,270,7.0,9.0,94,0.00,,,0.00,meteohub,2013-10-19 04:11:00,
2013-10-18 23:16:00,35.4,34.2,29.75,West,270,7.0,9.0,95,0.00,,,0.00,meteohub,2013-10-19 04:16:00,
2013-10-18 23:21:00,35.4,34.2,29.75,West,270,8.0,9.0,95,0.00,,,0.00,meteohub,2013-10-19 04:21:00,
2013-10-18 23:26:00,35.2,34.0,29.75,West,270,5.0,8.0,95,0.00,,,0.00,meteohub,2013-10-19 04:26:00,
2013-10-18 23:31:00,35.1,33.8,29.75,NW,315,6.0,8.0,95,0.00,,,0.00,meteohub,2013-10-19 04:31:00,
2013-10-18 23:36:00,35.1,33.8,29.75,West,270,8.0,9.0,95,0.00,,,0.00,meteohub,2013-10-19 04:36:00,
2013-10-18 23:41:00,35.2,34.2,29.75,West,270,9.0,9.0,96,0.00,,,0.00,meteohub,2013-10-19 04:41:00,
2013-10-18 23:46:00,35.1,34.0,29.75,West,270,7.0,9.0,96,0.00,,,0.00,meteohub,2013-10-19 04:46:00,
2013-10-18 23:51:00,34.9,33.8,29.75,NW,315,6.0,9.0,96,0.00,,,0.00,meteohub,2013-10-19 04:51:00,
2013-10-18 23:56:00,34.9,33.8,29.74,WSW,248,7.0,9.0,96,0.00,,,0.00,meteohub,2013-10-19 04:56:00,